Brisbane, Australia

8:09 AM AEST on January 17, 2017 (GMT +1000)
Brisbane International

Weather History for YBBN - April, 2013

Change the Weather History Date:

Sunday, April 7, 2013

  Actual Average Record
Temperature  
Mean Temperature 68 °F -  
Max Temperature 75 °F 78 °F 87 °F (1997)
Min Temperature 62 °F 62 °F 53 °F (2006)
Cooling Degree Days 4    
Growing Degree Days 18 (Base 50)    
Moisture  
Dew Point 62 °F    
Average Humidity 80    
Maximum Humidity 94    
Minimum Humidity 60    
Precipitation  
Precipitation 0.12 in 0.13 in - ()
Sea Level Pressure  
Sea Level Pressure 30.14 in    
Wind  
Wind Speed 6 mph ()    
Max Wind Speed 12 mph    
Max Gust Speed -    
Visibility 7.0 miles    
Events Rain    
Averages and records for this station are not official NWS values.
T = Trace of Precipitation, MM = Missing Value Source: Averaged Metar Reports

Daily Weather History Graph

Daily Weather History Graph

Search for Another Location

Airport or City:

Trip Planner

Search our weather history database for the weather conditions in past years. The results will help you decide how hot, cold, wet, or windy it might be!

Date:

Astronomy

Apr. 07, 2013 Rise Set
Actual Time 6:00 AM AEST 5:39 PM AEST
Civil Twilight 5:36 AM AEST 6:02 PM AEST
Nautical Twilight 5:09 AM AEST 6:29 PM AEST
Astronomical Twilight 4:42 AM AEST 6:56 PM AEST
Moon 2:44 AM AEST (4/7) 3:27 PM AEST (4/7)
Length of Visible Light 12h 25m
Length of Day
11h 38m
Waning Crescent, 12% of the Moon is Illuminated
Apr 7
Waning Crescent
Apr 10
New
Apr 18
First Quarter
Apr 26
Full
May 2
Last Quarter

Hourly Weather History & Observations

Time (AEST) Temp. Dew Point Humidity Pressure Visibility Wind Dir Wind Speed Gust Speed Precip Events Conditions
12:00 AM 67 °F 60 °F 73% 30.17 in 12 mi East 8.1 mph - - Rain Light Drizzle
12:00 AM 66.2 °F 60.8 °F 83% 30.15 in 6.2 mi East 8.1 mph - N/A   Light Drizzle
12:30 AM 66.2 °F 62.6 °F 88% 30.15 in 6.2 mi ESE 5.8 mph - N/A   Mostly Cloudy
1:00 AM 67 °F 62 °F 79% 30.16 in - East 1.2 mph - -  
1:00 AM 66.2 °F 62.6 °F 88% 30.15 in 6.2 mi East 1.2 mph - N/A   Mostly Cloudy
1:30 AM 66.2 °F 62.6 °F 88% 30.15 in 6.2 mi ENE 5.8 mph - N/A Rain Light Rain Showers
2:00 AM 66.2 °F 62.6 °F 88% 30.15 in 6.2 mi ENE 5.8 mph - N/A   Mostly Cloudy
2:30 AM 64.4 °F 60.8 °F 88% 30.12 in 6.2 mi ESE 4.6 mph - N/A   Light Drizzle
3:00 AM 65 °F 62 °F 88% 30.14 in 12 mi Calm Calm - - Rain Light Drizzle
3:00 AM 64.4 °F 62.6 °F 94% 30.12 in 6.2 mi Calm Calm - N/A   Mostly Cloudy
3:30 AM 64.4 °F 62.6 °F 94% 30.12 in 6.2 mi SSW 5.8 mph - N/A   Mostly Cloudy
4:00 AM 64 °F 62 °F 91% 30.14 in - SW 8.1 mph - -  
4:00 AM 64.4 °F 62.6 °F 94% 30.12 in 6.2 mi SW 8.1 mph - N/A   Mostly Cloudy
4:30 AM 64.4 °F 62.6 °F 94% 30.12 in 6.2 mi West 6.9 mph - N/A   Mostly Cloudy
5:00 AM 62.6 °F 60.8 °F 94% 30.12 in - SSW 4.6 mph - N/A   Clear
5:30 AM 62.6 °F 60.8 °F 94% 30.15 in 6.2 mi SSW 9.2 mph - N/A   Mostly Cloudy
6:00 AM 64 °F 60 °F 82% 30.16 in 12 mi SSW 8.1 mph - -   Mostly Cloudy
6:00 AM 64.4 °F 59.0 °F 83% 30.15 in 6.2 mi SSW 8.1 mph - N/A   Mostly Cloudy
6:30 AM 64.4 °F 60.8 °F 88% 30.15 in 6.2 mi SSW 8.1 mph - N/A   Mostly Cloudy
7:00 AM 64 °F 60 °F 82% 30.17 in - SSW 9.2 mph - -  
7:00 AM 64.4 °F 60.8 °F 88% 30.15 in 6.2 mi SSW 9.2 mph - N/A   Mostly Cloudy
7:30 AM 64.4 °F 60.8 °F 88% 30.15 in 6.2 mi SSW 8.1 mph - N/A   Mostly Cloudy
8:00 AM 66.2 °F 60.8 °F 83% 30.15 in 6.2 mi SSW 9.2 mph - N/A   Mostly Cloudy
8:30 AM 68.0 °F 60.8 °F 78% 30.18 in 6.2 mi SSW 8.1 mph - N/A   Mostly Cloudy
9:00 AM 68 °F 61 °F 71% 30.19 in 16 mi SSW 8.1 mph - -   Partly Cloudy
9:00 AM 68.0 °F 60.8 °F 78% 30.18 in 6.2 mi SSW 8.1 mph - N/A   Mostly Cloudy
9:30 AM 71.6 °F 60.8 °F 69% 30.15 in 6.2 mi SSW 6.9 mph - N/A   Mostly Cloudy
10:00 AM 73 °F 62 °F 60% 30.18 in - SE 5.8 mph - -  
10:00 AM 73.4 °F 62.6 °F 69% 30.15 in 6.2 mi SE 5.8 mph - N/A   Mostly Cloudy
10:30 AM 71.6 °F 62.6 °F 73% 30.15 in 6.2 mi ENE 5.8 mph - N/A   Mostly Cloudy
11:00 AM 71.6 °F 59.0 °F 64% 30.15 in 6.2 mi East 5.8 mph - N/A   Mostly Cloudy
11:30 AM 75.2 °F 60.8 °F 61% 30.12 in 6.2 mi SSE 5.8 mph - N/A   Mostly Cloudy
12:00 PM 73 °F 62 °F 61% 30.14 in 12 mi ESE 11.5 mph - -   Mostly Cloudy
12:00 PM 73.4 °F 62.6 °F 69% 30.12 in 6.2 mi ESE 11.5 mph - N/A   Mostly Cloudy
12:30 PM 69.8 °F 64.4 °F 83% 30.12 in 5.6 mi ESE 6.9 mph - N/A Rain Light Rain Showers
1:00 PM 71 °F 65 °F 75% 30.12 in - South 1.2 mph - -  
1:00 PM 69.8 °F 64.4 °F 83% 30.09 in 6.2 mi South 1.2 mph - N/A   Mostly Cloudy
1:30 PM 71.6 °F 64.4 °F 78% 30.09 in 6.2 mi East 4.6 mph - N/A Rain Light Rain Showers
2:00 PM 73.4 °F 64.4 °F 73% 30.09 in 6.2 mi East 4.6 mph - N/A Rain Light Rain Showers
2:30 PM 73.4 °F 64.4 °F 73% 30.09 in 6.2 mi ESE 6.9 mph - N/A   Mostly Cloudy
3:00 PM 72 °F 62 °F 63% 30.11 in 7 mi ESE 10.4 mph - -   Mostly Cloudy
3:00 PM 71.6 °F 62.6 °F 73% 30.09 in 6.2 mi ESE 10.4 mph - N/A   Mostly Cloudy
3:30 PM 71.6 °F 62.6 °F 73% 30.09 in 6.2 mi East 5.8 mph - N/A   Mostly Cloudy
4:00 PM 69 °F 63 °F 76% 30.10 in - South 5.8 mph - -  
4:00 PM 69.8 °F 62.6 °F 78% 30.09 in 6.2 mi South 5.8 mph - N/A   Mostly Cloudy
4:30 PM 69.8 °F 62.6 °F 78% 30.09 in 6.2 mi SSW 3.5 mph - N/A   Mostly Cloudy
5:00 PM 71.6 °F 62.6 °F 73% 30.09 in 6.2 mi SE 3.5 mph - N/A   Mostly Cloudy
5:30 PM 69.8 °F 60.8 °F 73% 30.12 in 6.2 mi SSE 8.1 mph - N/A Rain Light Rain Showers
6:00 PM 69 °F 62 °F 71% 30.13 in 9 mi SSE 6.9 mph - -   Mostly Cloudy
6:00 PM 68.0 °F 62.6 °F 83% 30.12 in 6.2 mi SSE 6.9 mph - N/A   Mostly Cloudy
6:30 PM 68.0 °F 60.8 °F 78% 30.12 in 6.2 mi SSE 5.8 mph - N/A   Mostly Cloudy
7:00 PM 67 °F 60 °F 72% 30.15 in - South 4.6 mph - -  
7:00 PM 66.2 °F 60.8 °F 83% 30.15 in 6.2 mi South 4.6 mph - N/A   Scattered Clouds
7:30 PM 66.2 °F 60.8 °F 83% 30.15 in 6.2 mi South 5.8 mph - N/A   Mostly Cloudy
8:00 PM 66.2 °F 60.8 °F 83% 30.15 in 6.2 mi SSE 4.6 mph - N/A   Scattered Clouds
8:30 PM 66.2 °F 60.8 °F 83% 30.18 in 6.2 mi SE 5.8 mph - N/A   Scattered Clouds
9:00 PM 68 °F 61 °F 72% 30.18 in 16 mi East 6.9 mph - -   Mostly Cloudy
9:00 PM 68.0 °F 60.8 °F 78% 30.18 in 6.2 mi East 6.9 mph - N/A   Mostly Cloudy
9:30 PM 66.2 °F 60.8 °F 83% 30.18 in 6.2 mi SSE 3.5 mph - N/A   Scattered Clouds
10:00 PM 66 °F 62 °F 83% 30.19 in - South 8.1 mph - -  
10:00 PM 66.2 °F 62.6 °F 88% 30.18 in 5.6 mi South 8.1 mph - N/A Rain Light Rain Showers
10:30 PM 64.4 °F 62.6 °F 94% 30.18 in 6.2 mi South 5.8 mph - N/A   Partly Cloudy
11:00 PM 64.4 °F 60.8 °F 88% 30.15 in 6.2 mi South 5.8 mph - N/A   Partly Cloudy
11:30 PM 64.4 °F 62.6 °F 94% 30.15 in 6.2 mi South 6.9 mph - N/A   Partly Cloudy